TimeCDT,TemperatureF,Dew PointF,Humidity,Sea Level PressureIn,VisibilityMPH,Wind Direction,Wind SpeedMPH,Gust SpeedMPH,PrecipitationIn,Events,Conditions,WindDirDegrees,DateUTC
12:14 AM,50.0,37.4,62,29.75,10.0,WNW,3.5,-,N/A,,Overcast,290,2012-10-09 05:14:00
12:34 AM,50.0,37.4,62,29.75,10.0,WNW,5.8,-,N/A,,Scattered Clouds,300,2012-10-09 05:34:00
12:54 AM,50.0,35.6,58,29.75,10.0,West,3.5,-,N/A,,Clear,280,2012-10-09 05:54:00
1:14 AM,50.0,37.4,62,29.75,10.0,West,4.6,-,N/A,,Clear,280,2012-10-09 06:14:00
1:34 AM,48.2,37.4,66,29.76,10.0,WNW,4.6,-,N/A,,Clear,290,2012-10-09 06:34:00
1:54 AM,48.2,37.4,66,29.76,10.0,WNW,4.6,-,N/A,,Clear,300,2012-10-09 06:54:00
2:14 AM,48.2,37.4,66,29.76,10.0,NW,3.5,-,N/A,,Scattered Clouds,310,2012-10-09 07:14:00
3:14 AM,46.4,35.6,66,29.75,10.0,NNW,3.5,-,N/A,,Overcast,330,2012-10-09 08:14:00
3:34 AM,46.4,35.6,66,29.75,10.0,NNW,3.5,-,N/A,,Overcast,330,2012-10-09 08:34:00
3:54 AM,46.4,35.6,66,29.75,10.0,NNW,4.6,-,N/A,,Overcast,330,2012-10-09 08:54:00
4:14 AM,46.4,35.6,66,29.76,10.0,NNW,6.9,-,N/A,,Overcast,330,2012-10-09 09:14:00
4:34 AM,46.4,35.6,66,29.77,10.0,NNW,6.9,-,N/A,Rain,Light Rain,340,2012-10-09 09:34:00
4:54 AM,46.4,35.6,66,29.78,10.0,NNW,8.1,-,N/A,Rain,Light Rain,340,2012-10-09 09:54:00
5:14 AM,44.6,37.4,76,29.78,10.0,North,8.1,-,N/A,,Drizzle,350,2012-10-09 10:14:00
5:34 AM,44.6,35.6,71,29.79,10.0,NW,4.6,-,N/A,,Overcast,310,2012-10-09 10:34:00
5:54 AM,46.4,35.6,66,29.79,10.0,WNW,4.6,-,N/A,,Overcast,290,2012-10-09 10:54:00
6:14 AM,44.6,33.8,66,29.80,10.0,NW,5.8,-,N/A,,Overcast,310,2012-10-09 11:14:00
6:34 AM,44.6,33.8,66,29.80,10.0,NW,8.1,-,N/A,,Overcast,320,2012-10-09 11:34:00
6:54 AM,46.4,30.2,53,29.81,10.0,NNW,8.1,17.3,N/A,,Overcast,340,2012-10-09 11:54:00
7:14 AM,44.6,30.2,57,29.81,10.0,NNW,6.9,-,N/A,,Overcast,330,2012-10-09 12:14:00
7:34 AM,44.6,30.2,57,29.81,10.0,NW,9.2,18.4,N/A,,Overcast,320,2012-10-09 12:34:00
7:54 AM,44.6,26.6,49,29.81,10.0,NW,11.5,18.4,N/A,,Overcast,320,2012-10-09 12:54:00
8:14 AM,44.6,26.6,49,29.81,10.0,NW,9.2,-,N/A,,Mostly Cloudy,320,2012-10-09 13:14:00
8:34 AM,44.6,26.6,49,29.82,10.0,NNW,10.4,-,N/A,,Scattered Clouds,330,2012-10-09 13:34:00
8:54 AM,44.6,26.6,49,29.82,10.0,NNW,10.4,-,N/A,,Scattered Clouds,330,2012-10-09 13:54:00
9:14 AM,44.6,26.6,49,29.83,10.0,NW,8.1,-,N/A,,Scattered Clouds,310,2012-10-09 14:14:00
9:34 AM,44.6,28.4,53,29.83,10.0,NW,18.4,23.0,N/A,,Scattered Clouds,310,2012-10-09 14:34:00
9:54 AM,44.6,28.4,53,29.83,10.0,NW,17.3,23.0,N/A,,Clear,320,2012-10-09 14:54:00
10:14 AM,44.6,26.6,49,29.83,10.0,NW,13.8,25.3,N/A,,Clear,320,2012-10-09 15:14:00
10:34 AM,46.4,26.6,46,29.83,10.0,NNW,18.4,21.9,N/A,,Mostly Cloudy,330,2012-10-09 15:34:00
10:54 AM,46.4,26.6,46,29.84,10.0,NNW,18.4,24.2,N/A,,Overcast,330,2012-10-09 15:54:00
11:14 AM,46.4,26.6,46,29.84,10.0,NNW,16.1,28.8,N/A,,Overcast,330,2012-10-09 16:14:00
11:54 AM,44.6,28.4,53,29.85,10.0,NNW,17.3,25.3,N/A,,Overcast,330,2012-10-09 16:54:00
12:14 PM,46.4,28.4,50,29.85,10.0,NNW,20.7,26.5,N/A,,Overcast,330,2012-10-09 17:14:00
12:34 PM,46.4,30.2,53,29.86,10.0,NW,19.6,28.8,N/A,,Overcast,320,2012-10-09 17:34:00
12:54 PM,44.6,30.2,57,29.86,10.0,NNW,17.3,29.9,N/A,,Overcast,330,2012-10-09 17:54:00
1:14 PM,46.4,30.2,53,29.86,10.0,North,18.4,28.8,N/A,,Overcast,350,2012-10-09 18:14:00
1:34 PM,46.4,30.2,53,29.86,10.0,North,23.0,29.9,N/A,,Overcast,350,2012-10-09 18:34:00
1:54 PM,44.6,32.0,61,29.88,10.0,North,19.6,31.1,N/A,,Overcast,350,2012-10-09 18:54:00
2:14 PM,46.4,30.2,53,29.88,10.0,North,23.0,29.9,N/A,,Overcast,360,2012-10-09 19:14:00
2:34 PM,44.6,30.2,57,29.90,10.0,North,17.3,29.9,N/A,,Overcast,360,2012-10-09 19:34:00
2:55 PM,44.6,30.2,57,29.91,10.0,North,18.4,28.8,N/A,,Overcast,350,2012-10-09 19:55:00
3:14 PM,44.6,30.2,57,29.91,10.0,North,17.3,27.6,N/A,,Overcast,350,2012-10-09 20:14:00
3:34 PM,44.6,30.2,57,29.92,10.0,North,19.6,25.3,N/A,,Overcast,350,2012-10-09 20:34:00
3:54 PM,44.6,28.4,53,29.93,10.0,North,23.0,27.6,N/A,,Overcast,360,2012-10-09 20:54:00
4:14 PM,42.8,28.4,57,29.94,10.0,North,20.7,27.6,N/A,,Overcast,350,2012-10-09 21:14:00
4:34 PM,42.8,28.4,57,29.95,10.0,North,18.4,24.2,N/A,,Overcast,360,2012-10-09 21:34:00
4:55 PM,42.8,28.4,57,29.96,10.0,North,18.4,25.3,N/A,,Overcast,350,2012-10-09 21:55:00
5:14 PM,42.8,28.4,57,29.97,10.0,North,15.0,20.7,N/A,,Overcast,350,2012-10-09 22:14:00
5:34 PM,42.8,26.6,53,29.97,10.0,North,13.8,27.6,N/A,,Overcast,350,2012-10-09 22:34:00
5:54 PM,42.8,24.8,49,29.98,10.0,North,13.8,21.9,N/A,,Overcast,350,2012-10-09 22:54:00
6:14 PM,42.8,24.8,49,29.99,10.0,North,17.3,26.5,N/A,,Overcast,10,2012-10-09 23:14:00
6:34 PM,42.8,23.0,46,29.99,10.0,North,15.0,23.0,N/A,,Mostly Cloudy,360,2012-10-09 23:34:00
6:54 PM,41.0,24.8,53,30.01,10.0,North,12.7,23.0,N/A,,Mostly Cloudy,360,2012-10-09 23:54:00
7:14 PM,41.0,24.8,53,30.01,10.0,North,9.2,-,N/A,,Overcast,350,2012-10-10 00:14:00
7:34 PM,41.0,24.8,53,30.01,10.0,NNW,5.8,-,N/A,,Overcast,340,2012-10-10 00:34:00
7:54 PM,41.0,24.8,53,30.01,10.0,NNW,6.9,-,N/A,,Overcast,330,2012-10-10 00:54:00
8:14 PM,41.0,24.8,53,30.02,10.0,NNW,5.8,-,N/A,,Overcast,340,2012-10-10 01:14:00
8:34 PM,41.0,23.0,49,30.02,10.0,NNW,5.8,-,N/A,,Overcast,340,2012-10-10 01:34:00
8:54 PM,41.0,23.0,49,30.03,10.0,NNW,4.6,-,N/A,,Overcast,330,2012-10-10 01:54:00
9:14 PM,41.0,23.0,49,30.03,10.0,NNW,5.8,-,N/A,,Overcast,340,2012-10-10 02:14:00
9:34 PM,39.2,23.0,52,30.03,10.0,NNW,5.8,-,N/A,,Overcast,330,2012-10-10 02:34:00
9:54 PM,39.2,24.8,56,30.04,10.0,Calm,Calm,-,N/A,,Overcast,0,2012-10-10 02:54:00
10:14 PM,39.2,24.8,56,30.04,10.0,NW,3.5,-,N/A,,Overcast,320,2012-10-10 03:14:00
10:34 PM,39.2,24.8,56,30.04,10.0,NNW,3.5,-,N/A,,Overcast,330,2012-10-10 03:34:00
10:54 PM,39.2,26.6,61,30.04,10.0,NNW,6.9,-,N/A,,Overcast,330,2012-10-10 03:54:00
11:14 PM,39.2,26.6,61,30.04,10.0,NNW,5.8,-,N/A,,Overcast,330,2012-10-10 04:14:00
11:34 PM,39.2,26.6,61,30.04,10.0,NW,4.6,-,N/A,,Overcast,320,2012-10-10 04:34:00
11:54 PM,37.4,24.8,60,30.04,10.0,WNW,4.6,-,N/A,,Scattered Clouds,300,2012-10-10 04:54:00